Regional Weather Roundup
Issued by NWS

Home | Current Version | Previous Version | Graphics & Text | Print | Product List | Glossary Off
Versions: 1 2 3 4 5 6 7 8 9 10 11 12 13 14 15 16 17 18 19 20 21 22 23 24 25 26 27 28 29 30 31 32 33 34 35 36 37 38 39 40 41 42 43 44 45 46 47 48 49 50

000
ASUS43 KMKX 280121
RWRWI

WISCONSIN REGIONAL WEATHER ROUNDUP
NATIONAL WEATHER SERVICE MILWAUKEE/SULLIVAN WI
800 PM CDT SAT AUG 27 2016

NOTE: "FAIR" INDICATES FEW OR NO CLOUDS BELOW 12,000 FEET WITH NO
SIGNIFICANT WEATHER AND/OR OBSTRUCTIONS TO VISIBILITY.

WIZ001-002-006>008-014>016-023>028-280200-
NORTHWEST WISCONSIN

CITY           SKY/WX    TMP DP  RH WIND       PRES   REMARKS
SUPERIOR ARPT  CLOUDY    63  63 100 S3        30.03R
ASHLAND        CLOUDY    63  61  93 CALM      30.04R
HAYWARD        CLOUDY    62  61  96 CALM      30.04R
SIREN          CLOUDY    63  62  97 CALM      30.03S
CUMBERLAND     DRIZZLE   61  61 100 CALM      30.03S
RICE LAKE      CLOUDY    63  61  94 CALM      30.05R FOG
CHETEK         NOT AVBL
LADYSMITH      DRIZZLE   63  62  95 S3        30.06R
EAU CLAIRE     CLOUDY    66  64  93 S3        30.02R
MENOMONIE      CLOUDY    65  65  97 CALM      30.03S
NEW RICHMOND   CLOUDY    64  64  98 SW3       30.03S
OSCEOLA        CLOUDY    64  64 100 CALM      30.05R
$$

WIZ003>005-009-010-017-018-280200-
NORTH CENTRAL WISCONSIN

CITY           SKY/WX    TMP DP  RH WIND       PRES   REMARKS
MANITOWISH WTR NOT AVBL
ARBOR VITAE    CLOUDY    63  61  94 CALM      30.05S
WOODRUFF       CLOUDY    63  61  94 CALM      30.05S
RHINELANDER    LGT RAIN  64  62  93 CALM      30.06R
EAGLE RIVER    RAIN      63  57  83 W5        30.06R
LAND O LAKES   HVY RAIN  63  60  90 CALM      30.07R
PHILLIPS       DRIZZLE   61  61 100 S3        30.04S
TOMAHAWK       CLOUDY    62  60  94 CALM      30.06R
MEDFORD        CLOUDY    62  62 100 S6        30.05S FOG
MERRILL        CLOUDY    64  62  95 S5        30.06R
$$

WIZ029-030-035-036-043>047-280200-
CENTRAL WISCONSIN

CITY           SKY/WX    TMP DP  RH WIND       PRES   REMARKS
WAUSAU         CLOUDY    63  61  93 S8        30.04S
MOSINEE        CLOUDY    63  63 100 SE5       30.06S
MARSHFIELD     CLOUDY    64  61  90 S5        30.05R FOG
STEVENS POINT  CLOUDY    61  61 100 SE3       30.06S FOG
WAUPACA        CLOUDY    67  65  96 CALM      30.06R
WAUTOMA        CLOUDY    64  64 100 CALM        N/A
WISC RAPIDS    CLOUDY    64  64 100 CALM      30.06S
CAMP DOUGLAS   CLOUDY    64  64 100 SE2       30.05S FOG
$$

WIZ011>013-019>022-031-037>040-048>050-280200-
NORTHEAST WISCONSIN

CITY           SKY/WX    TMP DP  RH WIND       PRES   REMARKS
ANTIGO         CLOUDY    62  60  96 CALM      30.06S
SHAWANO        CLOUDY    66  62  87 CALM      30.05F
OCONTO         NOT AVBL
STURGEON BAY   CLOUDY    64  63  96 CALM      30.05S FOG
GREEN BAY      CLOUDY    65  65 100 CALM      30.05R
MANITOWOC      CLOUDY    64  63  96 N5        30.05R FOG
APPLETON       CLOUDY    64  64 100 VRB5      30.04R
CLINTONVILLE   CLOUDY    64  61  88 CALM      30.06R
OSHKOSH        CLOUDY    66  64  93 CALM      30.05S
$$

WIZ032>034-041-042-053>061-280200-
SOUTHWEST WISCONSIN

CITY           SKY/WX    TMP DP  RH WIND       PRES   REMARKS
LA CROSSE      CLOUDY    69  67  93 SE3       30.02S
SPARTA         CLOUDY    65  65  99 CALM      30.05S
VIROQUA        CLOUDY    66  66 100 CALM      30.05S
BOSCOBEL       CLEAR     69  67  93 CALM      30.04S
PRAIRIE DU CHI CLEAR     69  67  91 CALM      30.03S
PLATTEVILLE    MOCLDY    71  70  97 CALM      30.05S
$$

WIZ056-057-062-063-064-067-068-280200-
SOUTH CENTRAL WISCONSIN

CITY           SKY/WX    TMP DP  RH WIND       PRES   REMARKS
REEDSBURG      NOT AVBL
BARABOO/DELLS  CLOUDY    65  63  93 CALM      30.06S FOG
LONE ROCK      CLOUDY    69  67  93 CALM      30.05S
MINERAL POINT  MOCLDY    70  68  94 CALM      30.06S
MADISON        PTCLDY    70  67  90 CALM      30.05R
MIDDLETON      PTCLDY    70  69  97 NW3       30.06R
WATERTOWN      CLOUDY    71  71  98 NW5       30.04R
MONROE         CLEAR     72  68  88 NW6       30.06R
JANESVILLE     PTCLDY    77  70  78 SW3       30.03R
$$

WIZ051-052-058>065-066-070>072-280200-
SOUTHEAST WISCONSIN

CITY           SKY/WX    TMP DP  RH WIND       PRES   REMARKS
MILWAUKEE      CLOUDY    74  68  81 CALM      30.02R
WAUKESHA       CLEAR     77  68  73 CALM      30.05R
MILWAUKEE/TIMM CLEAR     73  66  78 N3        30.03R
RACINE         MOCLDY    75  70  84 SE3       30.05R
BURLINGTON     PTCLDY    72  68  88 CALM      30.04R
KENOSHA        MOCLDY    75  70  84 SW7       30.04R
FOND DU LAC    CLOUDY    67  65  93 CALM      30.06R
SHEBOYGAN      CLOUDY    65  63  93 CALM      30.05R FOG
WEST BEND      CLOUDY    70  68  94 CALM      30.04R
JUNEAU         MOCLDY    67  66  94 N5        30.06R
$$

LSZ147-162-280200-
LAKE SUPERIOR

STATION/POSITION TIME  TEMP    WIND        PRES    WAVE
                       AIR SEA DIR/SP/G            HT/PER
                 (UTC) (F)     (DEG/KT/KT) (MB)    (FT/S)
W MID LAKE BUOY  0050   66 67   70/  8/ 10 1016.5R   1/ 3
DEVILS ISLAND    0100   63     140/  5/  5 1017.4R
PORT WING        0000   66     150/  2/  6 1016.6R
SAXON HARBOR     0040   64     150/  2/  5 1016.6R
$$

LMZ867-665-643>646-280200-
LAKE MICHIGAN

STATION/POSITION TIME  TEMP    WIND        PRES    WAVE
                       AIR SEA DIR/SP/G            HT/PER
                 (UTC) (F)     (DEG/KT/KT) (MB)    (FT/S)
CHAMBERS ISLAND  0040   66      40/  3/  3 1017.3R
S GREEN BAY BUOY 0100   65 71   80/  4/  6 1017.0
N MID LAKE BUOY  0050   66 70   60/  4/  6 1016.4F   1/ 3
NORTHPORT PIER   0000   66      70/  6/  7 1017.3R
SISTER BAY       0007   65     110/  2/  4   N/A
KEWAUNEE LAKESHO 0000   62      10/  5/  9 1016.7R
SHEBOYGAN LAKESH 0100   61     360/  7/  7 1017.1R
PORT WASHINGTON  0000   66      40/  4/  5 1017.3R
ATWATER BUOY     0100   65      20/  6/ 10   N/A
MILWAUKEE LAKESH 0010   66      20/  7/  8   N/A
S MID LAKE BUOY  0050   75 75  130/  8/  8 1016.1R   1/ 3
KENOSHA   LAKESH 0100   73     190/  9/ 11 1016.6R
$$

TC  - TEMPERATURE IN CELSIUS
VSB - VISIBILITY IN STATUTE MILES
WCI - WIND CHILL INDEX
HX  - HEAT INDEX





USA.gov is the U.S. government's official web portal to all federal, state and local government web resources and services.